Inquirer Daily News

Weather

Get conditions and forecasts for any City, State, ZIP code or Country:  
Trenton, NJ
on Tuesday, January 8, 2013

Tuesday
Previous Day Next Day
Daily Summary
 ActualAverageRecord
Temperature
Mean Temperature °F 31°F  
Max Temperature 49°F 39°F 70°F (1998)
Min Temperature 25°F 23°F -12°F (1866)
Degree Days
Heating Degree Days 28 34  
Month to date heating degree days 246 271  
Since 1 July heating degree days 2004 2166  
Cooling Degree Days 0 0  
Month to date cooling degree days 0 0  
Year to date cooling degree days 0 0  
Moisture
Dew Point 27°F   
Average Humidity 68    
Maximum Humidity 85    
Minimum Humidity 50    
Precipitation
Precipitation 0.00 in 0.12 in 0.88 in (2007)
Month to date precipitation 0.01 0.93  
Year to date precipitation 0.01 0.93  
Wind
Wind Speed 3 mph   
Max Wind Speed 14 mph   
Max Gust Speed 17 mph   
Visibility 8 miles   
Events     

Key: T is trace of precipitation, MM is missing value
Source: NWS Daily Summary
Time(EST)TemperatureDew PointHumidity Pressure Visibility Wind DirectionWind SpeedGust SpeedPrecipitationEvents Conditions
12:53 AM 28.0°F 23.0°F 81% 30.38 in 8.0 miles Calm Calm - N/A   Clear
1:53 AM 27.0°F 23.0°F 85% 30.38 in 7.0 miles Calm Calm - N/A   Clear
2:53 AM 27.0°F 21.9°F 81% 30.37 in 6.0 miles Calm Calm - N/A   Haze
3:53 AM 28.0°F 24.1°F 85% 30.35 in 6.0 miles Calm Calm - N/A   Clear
4:53 AM 28.0°F 24.1°F 85% 30.36 in 6.0 miles Calm Calm - N/A   Clear
5:53 AM 26.1°F 23.0°F 88% 30.38 in 5.0 miles Calm Calm - N/A   Clear
6:53 AM 26.1°F 23.0°F 88% 30.38 in 5.0 miles WSW 4.6 mph - N/A   Clear
7:53 AM 28.9°F 25.0°F 85% 30.40 in 5.0 miles Calm Calm - N/A   Clear
9:53 AM 37.9°F 30.0°F 73% 30.41 in 7.0 miles WSW 8.1 mph - N/A   Clear
10:53 AM 43.0°F 30.9°F 62% 30.38 in 10.0 miles SW 9.2 mph - N/A   Clear
11:53 AM 45.0°F 32.0°F 60% 30.36 in 10.0 miles SW 11.5 mph - N/A   Clear
12:53 PM 46.0°F 32.0°F 58% 30.34 in 10.0 miles SW 9.2 mph - N/A   Clear
1:53 PM 48.0°F 32.0°F 54% 30.34 in 10.0 miles WSW 9.2 mph - N/A   Clear
2:53 PM 48.9°F 30.0°F 48% 30.35 in 10.0 miles WNW 8.1 mph - N/A   Clear
3:53 PM 46.9°F 30.0°F 52% 30.36 in 10.0 miles West 5.8 mph - N/A   Clear
4:53 PM 44.1°F 30.0°F 58% 30.36 in 10.0 miles WSW 4.6 mph - N/A   Clear
5:53 PM 42.1°F 30.0°F 62% 30.37 in 10.0 miles West 3.5 mph - N/A   Clear
7:53 PM 39.0°F 28.9°F 67% 30.38 in 10.0 miles Calm Calm - N/A   Clear
8:53 PM 34.0°F 28.0°F 79% 30.37 in 9.0 miles Calm Calm - N/A   Clear
9:53 PM 33.1°F 28.0°F 82% 30.38 in 8.0 miles Calm Calm - N/A   Clear
10:53 PM 30.0°F 26.1°F 85% 30.38 in 7.0 miles Calm Calm - N/A   Clear
11:53 PM 30.0°F 26.1°F 85% 30.37 in 7.0 miles NNE 3.5 mph - N/A   Partly Cloudy
Astronomy
Sunrise:07:21 AM (EST) Moon Rise:03:52 AM (EST)1/8
Sunset:04:50 PM (EST) Moon Set:01:50 PM (EST)1/8
Moon Phase
Jan. 08 Jan. 11 Jan. 18 Jan. 26 Feb. 03

Copyright © 2014 The Weather Underground, Inc.